TimeMST,TemperatureF,Dew PointF,Humidity,Sea Level PressureIn,VisibilityMPH,Wind Direction,Wind SpeedMPH,Gust SpeedMPH,PrecipitationIn,Events,Conditions,WindDirDegrees,DateUTC
12:31 AM,12.2,10.4,92,30.10,2.5,Calm,Calm,-,N/A,,Scattered Clouds,0,2013-02-24 07:31:00
12:40 AM,14.0,10.4,86,30.11,10.0,Calm,Calm,-,N/A,,Scattered Clouds,0,2013-02-24 07:40:00
12:51 AM,14.0,10.9,88,30.27,9.0,Calm,Calm,-,N/A,,Mostly Cloudy,0,2013-02-24 07:51:00
1:18 AM,17.6,15.8,93,30.12,3.0,Calm,Calm,-,0.00,Snow,Light Snow,0,2013-02-24 08:18:00
1:25 AM,17.6,15.8,93,30.12,2.0,NNW,3.5,-,0.00,Snow,Light Snow,340,2013-02-24 08:25:00
1:37 AM,19.4,15.8,86,30.12,3.0,NW,4.6,-,0.00,Snow,Light Snow,310,2013-02-24 08:37:00
1:44 AM,19.4,17.6,93,30.12,2.0,Calm,Calm,-,0.00,Snow,Light Snow,0,2013-02-24 08:44:00
1:51 AM,19.0,16.0,88,30.25,2.0,Calm,Calm,-,0.00,Snow,Light Snow,0,2013-02-24 08:51:00
2:21 AM,19.4,15.8,86,30.13,5.0,Calm,Calm,-,0.01,Snow,Light Snow,0,2013-02-24 09:21:00
2:27 AM,17.6,15.8,93,30.13,6.0,NE,3.5,-,0.01,Snow,Light Snow,40,2013-02-24 09:27:00
2:51 AM,14.0,10.9,88,30.28,10.0,Calm,Calm,-,0.01,,Overcast,0,2013-02-24 09:51:00
3:51 AM,14.0,10.9,88,30.29,10.0,NE,3.5,-,N/A,,Overcast,50,2013-02-24 10:51:00
4:12 AM,12.2,10.4,92,30.14,10.0,Calm,Calm,-,N/A,,Mostly Cloudy,0,2013-02-24 11:12:00
4:18 AM,12.2,8.6,85,30.14,10.0,Calm,Calm,-,N/A,,Mostly Cloudy,0,2013-02-24 11:18:00
4:51 AM,10.0,7.0,87,30.32,10.0,Calm,Calm,-,N/A,,Mostly Cloudy,0,2013-02-24 11:51:00
5:38 AM,6.8,3.2,85,30.17,10.0,Calm,Calm,-,N/A,,Mostly Cloudy,0,2013-02-24 12:38:00
5:51 AM,9.0,6.1,88,30.34,1.2,Calm,Calm,-,N/A,,Mostly Cloudy,0,2013-02-24 12:51:00
5:55 AM,8.6,6.8,92,30.17,0.8,Calm,Calm,-,N/A,,Mist,0,2013-02-24 12:55:00
6:00 AM,6.8,5.0,92,30.17,1.2,Calm,Calm,-,N/A,,Overcast,0,2013-02-24 13:00:00
6:12 AM,8.6,6.8,92,30.17,0.8,Calm,Calm,-,N/A,,Mist,0,2013-02-24 13:12:00
6:51 AM,12.0,10.0,92,30.35,0.5,Calm,Calm,-,N/A,Fog,Light Freezing Fog,0,2013-02-24 13:51:00
7:51 AM,16.0,10.9,81,30.36,0.2,Calm,Calm,-,N/A,,Haze,0,2013-02-24 14:51:00
8:51 AM,18.0,12.0,78,30.37,0.2,Calm,Calm,-,N/A,,Haze,0,2013-02-24 15:51:00
9:51 AM,21.0,15.1,78,30.38,0.5,Calm,Calm,-,N/A,,Haze,0,2013-02-24 16:51:00
10:31 AM,23.0,15.8,74,30.23,1.0,South,4.6,-,N/A,,Haze,180,2013-02-24 17:31:00
10:38 AM,21.2,15.8,80,30.23,0.8,Calm,Calm,-,N/A,,Haze,0,2013-02-24 17:38:00
10:41 AM,21.2,15.8,80,30.23,1.2,South,3.5,-,N/A,,Haze,180,2013-02-24 17:41:00
10:45 AM,23.0,15.8,74,30.23,2.0,South,3.5,-,N/A,,Haze,170,2013-02-24 17:45:00
10:51 AM,23.0,14.0,68,30.36,3.0,SSE,3.5,-,N/A,,Haze,150,2013-02-24 17:51:00
11:51 AM,26.1,15.1,63,30.35,10.0,Calm,Calm,-,N/A,,Clear,0,2013-02-24 18:51:00
12:51 PM,23.0,16.0,74,30.37,10.0,South,3.5,-,N/A,,Clear,180,2013-02-24 19:51:00
1:51 PM,23.0,18.0,81,30.34,10.0,SSE,4.6,-,N/A,,Clear,160,2013-02-24 20:51:00
2:51 PM,26.1,16.0,66,30.33,10.0,South,4.6,-,N/A,,Clear,180,2013-02-24 21:51:00
3:51 PM,27.0,12.9,56,30.32,10.0,South,3.5,-,N/A,,Partly Cloudy,190,2013-02-24 22:51:00
4:51 PM,28.0,15.1,58,30.33,10.0,South,3.5,-,N/A,,Clear,170,2013-02-24 23:51:00
5:51 PM,26.1,18.0,71,30.34,10.0,Calm,Calm,-,N/A,,Clear,0,2013-02-25 00:51:00
6:51 PM,23.0,17.1,78,30.34,10.0,Calm,Calm,-,N/A,,Mostly Cloudy,0,2013-02-25 01:51:00
7:51 PM,18.0,14.0,84,30.35,10.0,Calm,Calm,-,N/A,,Clear,0,2013-02-25 02:51:00
8:51 PM,17.1,12.0,81,30.33,10.0,Calm,Calm,-,N/A,,Overcast,0,2013-02-25 03:51:00
9:51 PM,15.1,12.0,88,30.31,10.0,ENE,3.5,-,N/A,,Mostly Cloudy,60,2013-02-25 04:51:00
10:51 PM,14.0,10.0,84,30.30,8.0,Calm,Calm,-,N/A,,Overcast,0,2013-02-25 05:51:00
11:51 PM,16.0,12.9,88,30.28,8.0,Calm,Calm,-,N/A,,Overcast,0,2013-02-25 06:51:00